IZ3ZOD-13 Weather Reports


Display with metric or nautical units.
time (UTC)temp
F
wind
direction
speed
MPH
gust
MPH
rain 1hr
in
rain 24hr
in
rain mn
in
humidity
%
barometer
mb
20260502152003 76 233 5.0 13.0 0.00 0.00 0.00 33 1021.4
20260502151603 76 236 4.0 8.0 0.00 0.00 0.00 33 1021.5
20260502151203 76 213 4.0 6.0 0.00 0.00 0.00 34 1021.5
20260502150803 76 228 5.0 15.0 0.00 0.00 0.00 32 1021.5
20260502150614 76 231 6.0 15.0 0.00 0.00 0.00 33 1021.8
20260502150213 76 246 6.0 15.0 0.00 0.00 0.00 33 1021.6
20260502130615 76 196 4.0 9.0 0.00 0.00 0.00 32 1023.3
20260502123816 77 217 5.0 9.0 0.00 0.00 0.00 34 1023.3
20260502123203 76 184 3.0 9.0 0.00 0.00 0.00 32 1023.4
20260502122803 77 238 3.0 7.0 0.00 0.00 0.00 31 1023.5
20260502122403 75 241 4.0 9.0 0.00 0.00 0.00 32 1023.6
20260502122003 75 240 6.0 10.0 0.00 0.00 0.00 33 1023.7
20260502121603 75 224 6.0 10.0 0.00 0.00 0.00 34 1023.6
20260502121203 75 184 5.0 10.0 0.00 0.00 0.00 32 1023.6
20260502120803 74 161 5.0 10.0 0.00 0.00 0.00 34 1023.7
20260502120403 75 178 4.0 10.0 0.00 0.00 0.00 32 1023.8
20260502120215 75 202 5.0 10.0 0.00 0.00 0.00 32 1023.9
20260502115603 74 234 6.0 13.0 0.00 0.00 0.00 33 1023.7
20260502115203 74 209 7.0 13.0 0.00 0.00 0.00 32 1024.1
20260502114803 75 209 6.0 13.0 0.00 0.00 0.00 33 1023.9
20260502114403 75 233 6.0 11.0 0.00 0.00 0.00 32 1024.1
20260502114003 74 237 6.0 11.0 0.00 0.00 0.00 33 1024.1
20260502113603 75 229 5.0 11.0 0.00 0.00 0.00 32 1024.1
20260502113203 75 224 4.0 9.0 0.00 0.00 0.00 32 1024.2
20260502112803 75 180 4.0 9.0 0.00 0.00 0.00 32 1024.4
20260502112403 74 159 5.0 9.0 0.00 0.00 0.00 33 1024.2
20260502112003 74 174 6.0 11.0 0.00 0.00 0.00 34 1024.2
20260502111813 74 192 6.0 11.0 0.00 0.00 0.00 33 1024.4
20260502111203 74 239 6.0 10.0 0.00 0.00 0.00 34 1024.3
20260502110803 74 230 5.0 10.0 0.00 0.00 0.00 32 1024.6
20260502110403 74 228 5.0 9.0 0.00 0.00 0.00 32 1024.6
20260502110216 74 232 5.0 10.0 0.00 0.00 0.00 34 1024.6
20260502105603 74 247 4.0 10.0 0.00 0.00 0.00 34 1024.6
20260502105203 76 248 3.0 9.0 0.00 0.00 0.00 31 1024.9
20260502104803 76 247 2.0 8.0 0.00 0.00 0.00 32 1024.8
20260502104403 75 246 3.0 8.0 0.00 0.00 0.00 34 1024.8
20260502104003 74 259 5.0 11.0 0.00 0.00 0.00 33 1025.1
20260502103603 74 256 5.0 11.0 0.00 0.00 0.00 34 1024.9
20260502103417 73 256 6.0 11.0 0.00 0.00 0.00 33 1024.8
20260502103016 73 257 4.0 10.0 0.00 0.00 0.00 34 1025.2
20260502102615 75 263 4.0 9.0 0.00 0.00 0.00 32 1024.9
20260502102003 73 223 5.0 11.0 0.00 0.00 0.00 36 1025.1
20260502101203 73 196 4.0 11.0 0.00 0.00 0.00 34 1025.2
20260502100803 73 196 4.0 9.0 0.00 0.00 0.00 34 1025.2
20260502100403 73 192 5.0 9.0 0.00 0.00 0.00 36 1025.2
20260502091203 73 209 2.0 6.0 0.00 0.00 0.00 36 1025.6
20260502091014 72 216 2.0 6.0 0.00 0.00 0.00 37 1025.9
20260502090613 73 242 2.0 6.0 0.00 0.00 0.00 35 1025.7
20260502071416 64 17 1.0 3.0 0.00 0.00 0.00 49 1026.4
20260502070803 63 3 2.0 4.0 0.00 0.00 0.00 51 1026.3
20260502070615 63 1 2.0 4.0 0.00 0.00 0.00 50 1026.3
20260502070214 62 5 2.0 6.0 0.00 0.00 0.00 51 1026.2
20260502065603 62 9 2.0 6.0 0.00 0.00 0.00 52 1026.2
20260502065413 61 6 2.0 4.0 0.00 0.00 0.00 53 1026.3
20260502064803 61 11 2.0 4.0 0.00 0.00 0.00 54 1026.3
20260502064403 61 5 2.0 3.0 0.00 0.00 0.00 54 1026.5
20260502064003 61 1 2.0 4.0 0.00 0.00 0.00 55 1026.4
20260502063603 61 354 1.0 4.0 0.00 0.00 0.00 53 1026.4
20260502063203 61 357 1.0 4.0 0.00 0.00 0.00 54 1026.4
20260502062803 60 352 1.0 3.0 0.00 0.00 0.00 54 1026.4
20260502062403 60 353 1.0 3.0 0.00 0.00 0.00 53 1026.5
20260502062003 60 349 1.0 2.0 0.00 0.00 0.00 52 1026.4
20260502061603 60 350 0.0 2.0 0.00 0.00 0.00 53 1026.3
20260502060803 60 330 0.0 2.0 0.00 0.00 0.00 53 1026.3
20260502060403 59 323 0.0 2.0 0.00 0.00 0.00 53 1026.2
20260502060003 59 308 0.0 2.0 0.00 0.00 0.00 53 1026.2
20260502055814 59 304 0.0 2.0 0.00 0.00 0.00 53 1026.3
20260502055413 59 0 0.0 0.0 0.00 0.00 0.00 55 1026.3
20260502055013 58 289 0.0 1.0 0.00 0.00 0.00 56 1026.2
20260502054403 57 289 0.0 1.0 0.00 0.00 0.00 57 1026.3
20260502054217 57 289 0.0 1.0 0.00 0.00 0.00 57 1026.2
20260502053603 56 283 0.0 1.0 0.00 0.00 0.00 57 1026.1
20260502053203 56 283 0.0 1.0 0.00 0.00 0.00 58 1026.2
20260502052803 55 281 0.0 2.0 0.00 0.00 0.00 59 1026.3
20260502052403 55 283 0.0 2.0 0.00 0.00 0.00 58 1026.2
20260502052003 55 287 0.0 2.0 0.00 0.00 0.00 59 1026.2
20260502051813 55 296 0.0 1.0 0.00 0.00 0.00 60 1026.2
20260502051203 55 0 0.0 0.0 0.00 0.00 0.00 60 1026.2
20260502050803 54 0 0.0 0.0 0.00 0.00 0.00 62 1026.0
20260502050403 53 306 0.0 1.0 0.00 0.00 0.00 63 1026.2
20260502050004 53 313 0.0 1.0 0.00 0.00 0.00 63 1026.2
20260502045815 52 314 0.0 1.0 0.00 0.00 0.00 64 1026.2
20260502045203 51 318 0.0 1.0 0.00 0.00 0.00 65 1026.1
20260502044803 51 317 0.0 1.0 0.00 0.00 0.00 67 1026.0
20260502044403 50 316 0.0 1.0 0.00 0.00 0.00 68 1025.9
20260502044003 50 277 0.0 1.0 0.00 0.00 0.00 69 1025.8
20260502043603 49 277 0.0 1.0 0.00 0.00 0.00 70 1025.8
20260502043203 48 277 0.0 1.0 0.00 0.00 0.00 71 1025.9
20260502042803 48 0 0.0 0.0 0.00 0.00 0.00 72 1026.0
20260502042403 47 0 0.0 0.0 0.00 0.00 0.00 72 1025.9
20260502042003 47 0 0.0 0.0 0.00 0.00 0.00 73 1025.9
20260502041603 47 0 0.0 0.0 0.00 0.00 0.00 72 1026.0
20260502041203 47 275 0.0 1.0 0.00 0.00 0.00 72 1026.0
20260502041017 47 274 0.0 1.0 0.00 0.00 0.00 72 1025.9
20260502040403 47 272 0.0 1.0 0.00 0.00 0.00 73 1026.0
20260502040003 47 274 1.0 2.0 0.00 0.00 0.00 74 1026.1
20260502035603 47 274 1.0 2.0 0.00 0.00 0.00 74 1025.9
20260502035203 46 279 0.0 2.0 0.00 0.00 0.00 76 1025.9
20260502034803 46 0 0.0 0.0 0.00 0.00 0.00 76 1025.8
20260502034403 46 0 0.0 0.0 0.00 0.00 0.00 75 1025.8
20260502034003 46 0 0.0 0.0 0.00 0.00 0.00 74 1026.1
20260502033817 46 0 0.0 0.0 0.00 0.00 0.00 74 1026.0
20260502033417 47 0 0.0 0.0 0.00 0.00 0.00 73 1025.9
20260502033016 47 0 0.0 0.0 0.00 0.00 0.00 73 1025.9
20260502032615 46 0 0.0 0.0 0.00 0.00 0.00 74 1025.9
20260502032003 46 0 0.0 0.0 0.00 0.00 0.00 74 1025.9
20260502031814 46 0 0.0 0.0 0.00 0.00 0.00 75 1026.0
20260502031203 45 0 0.0 0.0 0.00 0.00 0.00 77 1026.1
20260502030803 46 0 0.0 0.0 0.00 0.00 0.00 74 1026.1
20260502030617 46 0 0.0 0.0 0.00 0.00 0.00 74 1026.1
20260502030003 47 0 0.0 0.0 0.00 0.00 0.00 73 1025.9
20260502025603 47 0 0.0 0.0 0.00 0.00 0.00 73 1025.9
20260502025203 47 0 0.0 0.0 0.00 0.00 0.00 74 1026.0
20260502024803 46 0 0.0 0.0 0.00 0.00 0.00 74 1026.0
20260502024403 46 0 0.0 0.0 0.00 0.00 0.00 75 1026.1
20260502024003 46 0 0.0 0.0 0.00 0.00 0.00 74 1026.1
20260502023603 46 0 0.0 0.0 0.00 0.00 0.00 74 1026.1
20260502023203 46 0 0.0 0.0 0.00 0.00 0.00 74 1026.1
20260502022803 46 0 0.0 0.0 0.00 0.00 0.00 74 1026.0
20260502022616 46 0 0.0 0.0 0.00 0.00 0.00 74 1026.0
20260502022003 46 0 0.0 0.0 0.00 0.00 0.00 73 1026.1
20260502021603 46 0 0.0 0.0 0.00 0.00 0.00 73 1026.2
20260502021203 47 0 0.0 0.0 0.00 0.00 0.00 72 1026.1
20260502021013 47 0 0.0 0.0 0.00 0.00 0.00 72 1026.0
20260502020403 47 0 0.0 0.0 0.00 0.00 0.00 72 1025.9
20260502020003 47 0 0.0 0.0 0.00 0.00 0.00 71 1026.1
20260502015603 48 0 0.0 0.0 0.00 0.00 0.00 71 1026.0
20260502015203 48 0 0.0 0.0 0.00 0.00 0.00 70 1026.0
20260502014803 48 0 0.0 0.0 0.00 0.00 0.00 70 1026.0
20260502014403 47 0 0.0 0.0 0.00 0.00 0.00 71 1026.0
20260502014003 47 0 0.0 0.0 0.00 0.00 0.00 71 1026.0
20260502013603 48 0 0.0 0.0 0.00 0.00 0.00 69 1026.2
20260502013203 48 0 0.0 0.0 0.00 0.00 0.00 68 1025.9
20260502012803 48 0 0.0 0.0 0.00 0.00 0.00 68 1026.0
20260502012403 48 0 0.0 0.0 0.00 0.00 0.00 68 1026.1
20260502012003 48 0 0.0 0.0 0.00 0.00 0.00 68 1026.1
20260502011603 48 0 0.0 0.0 0.00 0.00 0.00 68 1026.2
20260502011203 48 0 0.0 0.0 0.00 0.00 0.00 68 1026.1
20260502010803 48 0 0.0 0.0 0.00 0.00 0.00 68 1026.2
20260502010613 48 0 0.0 0.0 0.00 0.00 0.00 68 1026.2
20260502010004 48 0 0.0 0.0 0.00 0.00 0.00 68 1026.1
20260502005603 47 0 0.0 0.0 0.00 0.00 0.00 68 1026.1
20260502005203 48 0 0.0 0.0 0.00 0.00 0.00 69 1026.3
20260502005016 48 0 0.0 0.0 0.00 0.00 0.00 68 1026.2
20260502004615 48 0 0.0 0.0 0.00 0.00 0.00 70 1026.1
20260502004003 48 0 0.0 0.0 0.00 0.00 0.00 69 1026.3
20260502003603 48 39 0.0 1.0 0.00 0.00 0.00 67 1026.2
20260502003203 49 39 1.0 2.0 0.00 0.00 0.00 67 1026.3
20260502003013 49 40 1.0 2.0 0.00 0.00 0.00 67 1026.2
20260502002403 49 45 1.0 3.0 0.00 0.00 0.00 67 1026.3
20260502002217 49 42 2.0 4.0 0.00 0.00 0.00 66 1026.3
20260502001603 49 40 2.0 4.0 0.00 0.00 0.00 68 1026.2
20260502001203 50 60 0.0 3.0 0.00 0.00 0.00 63 1026.2
20260502000803 50 160 0.0 1.0 0.00 0.00 0.00 62 1026.4
20260502000403 50 0 0.0 0.0 0.00 0.00 0.00 62 1026.1
20260502000213 50 0 0.0 0.0 0.00 0.00 0.00 63 1026.2
20260501235603 51 0 0.0 0.0 0.00 0.00 0.00 59 1026.2
20260501235203 51 0 0.0 0.0 0.00 0.00 0.00 58 1026.2
20260501235017 51 0 0.0 0.0 0.00 0.00 0.00 58 1026.2
20260501234403 51 0 0.0 0.0 0.00 0.00 0.00 59 1026.3
20260501234003 51 0 0.0 0.0 0.00 0.00 0.00 60 1026.2
20260501233603 51 0 0.0 0.0 0.00 0.00 0.00 60 1026.4
20260501233203 51 0 0.0 0.0 0.00 0.00 0.00 59 1026.0
20260501232803 51 0 0.0 0.0 0.00 0.00 0.00 60 1026.1
20260501232403 51 0 0.0 0.0 0.00 0.00 0.00 60 1026.1
20260501232003 50 0 0.0 0.0 0.00 0.00 0.00 61 1026.1
20260501231603 50 0 0.0 0.0 0.00 0.00 0.00 62 1026.2
20260501231203 50 0 0.0 0.0 0.00 0.00 0.00 64 1026.1
20260501230803 50 0 0.0 0.0 0.00 0.00 0.00 63 1026.1
20260501230403 51 0 0.0 0.0 0.00 0.00 0.00 62 1026.3
20260501230003 51 0 0.0 0.0 0.00 0.00 0.00 60 1026.1
20260501225813 51 0 0.0 0.0 0.00 0.00 0.00 60 1026.2
20260501225203 50 0 0.0 0.0 0.00 0.00 0.00 62 1026.3
20260501224803 50 0 0.0 0.0 0.00 0.00 0.00 63 1026.2
20260501224404 51 0 0.0 0.0 0.00 0.00 0.00 61 1026.2
20260501224216 51 0 0.0 0.0 0.00 0.00 0.00 62 1026.4
20260501223603 51 0 0.0 0.0 0.00 0.00 0.00 63 1026.2
20260501223203 51 0 0.0 0.0 0.00 0.00 0.00 62 1026.0
20260501222803 51 0 0.0 0.0 0.00 0.00 0.00 61 1026.2
20260501222613 51 0 0.0 0.0 0.00 0.00 0.00 61 1026.2
20260501222003 51 0 0.0 0.0 0.00 0.00 0.00 62 1026.1
20260501221603 51 0 0.0 0.0 0.00 0.00 0.00 61 1026.1
20260501221417 51 0 0.0 0.0 0.00 0.00 0.00 61 1026.0
20260501221016 51 0 0.0 0.0 0.00 0.00 0.00 61 1026.2
20260501220615 52 0 0.0 0.0 0.00 0.00 0.00 60 1026.2
20260501220004 52 0 0.0 0.0 0.00 0.00 0.00 59 1026.1
20260501215603 52 0 0.0 0.0 0.00 0.00 0.00 58 1026.0
20260501215203 52 0 0.0 0.0 0.00 0.00 0.00 59 1026.1
20260501214803 52 0 0.0 0.0 0.00 0.00 0.00 58 1026.0
20260501214617 52 0 0.0 0.0 0.00 0.00 0.00 59 1025.9
20260501214003 52 0 0.0 0.0 0.00 0.00 0.00 60 1025.9
20260501213816 52 0 0.0 0.0 0.00 0.00 0.00 61 1026.0
20260501213203 52 0 0.0 0.0 0.00 0.00 0.00 61 1026.0
20260501212803 52 0 0.0 0.0 0.00 0.00 0.00 61 1026.0
20260501212404 52 0 0.0 0.0 0.00 0.00 0.00 60 1025.8
20260501212003 52 0 0.0 0.0 0.00 0.00 0.00 59 1025.9
20260501211813 52 0 0.0 0.0 0.00 0.00 0.00 59 1025.9
20260501211417 52 0 0.0 0.0 0.00 0.00 0.00 58 1025.8
20260501210803 52 0 0.0 0.0 0.00 0.00 0.00 59 1025.9
20260501210403 52 0 0.0 0.0 0.00 0.00 0.00 60 1025.7
20260501210003 52 0 0.0 0.0 0.00 0.00 0.00 59 1025.7
20260501205603 52 0 0.0 0.0 0.00 0.00 0.00 58 1025.6
20260501205414 52 0 0.0 0.0 0.00 0.00 0.00 59 1025.4
20260501205013 52 0 0.0 0.0 0.00 0.00 0.00 58 1025.7
20260501204403 52 0 0.0 0.0 0.00 0.00 0.00 59 1025.7
20260501204003 53 0 0.0 0.0 0.00 0.00 0.00 59 1025.7
20260501203603 53 0 0.0 0.0 0.00 0.00 0.00 57 1025.6
20260501203203 53 0 0.0 0.0 0.00 0.00 0.00 55 1025.6
20260501202803 54 0 0.0 0.0 0.00 0.00 0.00 53 1025.6
20260501202403 54 0 0.0 0.0 0.00 0.00 0.00 56 1025.7
20260501202214 54 0 0.0 0.0 0.00 0.00 0.00 55 1025.6
20260501201603 55 0 0.0 0.0 0.00 0.00 0.00 51 1025.6
20260501201203 55 0 0.0 0.0 0.00 0.00 0.00 51 1025.6
20260501200804 56 0 0.0 0.0 0.00 0.00 0.00 51 1025.5
20260501200403 56 0 0.0 0.0 0.00 0.00 0.00 51 1025.6
20260501200004 57 0 0.0 0.0 0.00 0.00 0.00 48 1025.6
20260501195603 58 0 0.0 0.0 0.00 0.00 0.00 46 1025.6
20260501195203 58 0 0.0 0.0 0.00 0.00 0.00 44 1025.6
20260501194803 58 0 0.0 0.0 0.00 0.00 0.00 44 1025.4
20260501194403 58 0 0.0 0.0 0.00 0.00 0.00 43 1025.4
20260501194003 58 0 0.0 0.0 0.00 0.00 0.00 43 1025.4
20260501193817 58 0 0.0 0.0 0.00 0.00 0.00 43 1025.4
20260501193417 59 0 0.0 0.0 0.00 0.00 0.00 42 1025.3
20260501192803 59 0 0.0 0.0 0.00 0.00 0.00 42 1025.4
20260501192403 60 247 0.0 1.0 0.00 0.00 0.00 41 1025.3
20260501192003 60 247 0.0 1.0 0.00 0.00 0.00 41 1025.3
20260501191814 60 247 0.0 1.0 0.00 0.00 0.00 41 1025.3
20260501191203 59 247 0.0 1.0 0.00 0.00 0.00 42 1025.3
20260501190803 60 247 0.0 1.0 0.00 0.00 0.00 42 1025.4
20260501190612 60 247 0.0 1.0 0.00 0.00 0.00 42 1025.2
20260501190003 61 247 0.0 2.0 0.00 0.00 0.00 40 1025.3
20260501185603 61 247 0.0 2.0 0.00 0.00 0.00 39 1025.3
20260501185203 60 247 0.0 2.0 0.00 0.00 0.00 39 1025.1
20260501184803 60 247 0.0 1.0 0.00 0.00 0.00 39 1025.2
20260501184403 60 0 0.0 0.0 0.00 0.00 0.00 39 1025.1
20260501184003 61 0 0.0 0.0 0.00 0.00 0.00 39 1025.1
20260501183603 61 0 0.0 0.0 0.00 0.00 0.00 39 1024.9
20260501183203 61 0 0.0 0.0 0.00 0.00 0.00 39 1025.0
20260501183017 62 0 0.0 0.0 0.00 0.00 0.00 38 1024.8
20260501182616 62 0 0.0 0.0 0.00 0.00 0.00 37 1025.1
20260501182215 62 247 0.0 1.0 0.00 0.00 0.00 37 1024.9
20260501181603 63 247 0.0 1.0 0.00 0.00 0.00 37 1024.9
20260501181203 63 247 0.0 1.0 0.00 0.00 0.00 36 1024.9
20260501180803 63 247 1.0 1.0 0.00 0.00 0.00 36 1024.9
20260501180403 64 247 1.0 2.0 0.00 0.00 0.00 36 1024.8
20260501180003 65 247 1.0 2.0 0.00 0.00 0.00 36 1025.0
20260501175817 65 247 0.0 2.0 0.00 0.00 0.00 34 1024.9
20260501175416 66 247 0.0 2.0 0.00 0.00 0.00 34 1024.9
20260501174803 66 247 1.0 3.0 0.00 0.00 0.00 34 1024.9
20260501174403 67 243 1.0 3.0 0.00 0.00 0.00 32 1024.8
20260501174003 67 227 0.0 2.0 0.00 0.00 0.00 33 1024.8
20260501173603 68 231 1.0 2.0 0.00 0.00 0.00 30 1024.5
20260501173203 68 233 1.0 1.0 0.00 0.00 0.00 30 1024.8
20260501172803 69 228 1.0 2.0 0.00 0.00 0.00 31 1024.8
20260501172003 69 216 0.0 2.0 0.00 0.00 0.00 31 1024.8
20260501171603 69 218 0.0 2.0 0.00 0.00 0.00 28 1024.9
20260501171203 69 220 0.0 2.0 0.00 0.00 0.00 28 1024.9
20260501170803 69 209 1.0 2.0 0.00 0.00 0.00 28 1024.9
20260501170403 68 212 1.0 4.0 0.00 0.00 0.00 29 1025.0
20260501170004 68 213 2.0 4.0 0.00 0.00 0.00 29 1025.0
20260501165603 68 212 2.0 4.0 0.00 0.00 0.00 29 1025.0
20260501165203 69 172 1.0 4.0 0.00 0.00 0.00 29 1025.0
20260501164803 68 132 1.0 2.0 0.00 0.00 0.00 28 1024.9
20260501164403 68 121 2.0 4.0 0.00 0.00 0.00 28 1025.0
20260501164003 68 123 2.0 4.0 0.00 0.00 0.00 27 1025.0
20260501163603 69 134 1.0 4.0 0.00 0.00 0.00 27 1025.1
20260501163203 69 108 2.0 4.0 0.00 0.00 0.00 28 1025.0
20260501162803 68 115 3.0 4.0 0.00 0.00 0.00 29 1025.1
20260501162612 68 126 4.0 8.0 0.00 0.00 0.00 29 1025.1
20260501162004 69 193 3.0 8.0 0.00 0.00 0.00 28 1025.0
20260501161603 70 255 2.0 6.0 0.00 0.00 0.00 29 1025.0
20260501161203 70 326 1.0 4.0 0.00 0.00 0.00 28 1025.1
20260501160803 69 47 1.0 3.0 0.00 0.00 0.00 29 1025.1
20260501160403 70 45 1.0 3.0 0.00 0.00 0.00 29 1025.2
20260501160003 70 47 1.0 2.0 0.00 0.00 0.00 27 1025.4
20260501155603 71 93 1.0 2.0 0.00 0.00 0.00 27 1025.3
20260501155203 70 105 1.0 3.0 0.00 0.00 0.00 26 1025.5
20260501154403 69 106 3.0 5.0 0.00 0.00 0.00 27 1025.4
20260501154003 69 145 3.0 9.0 0.00 0.00 0.00 27 1025.4
20260501153603 70 180 3.0 9.0 0.00 0.00 0.00 27 1025.5
20260501153203 70 225 1.0 8.0 0.00 0.00 0.00 26 1025.6